SCP
0 0 0 0 0 0 0 0 0 0 0 0 0 0 0 0 0 -0 0 0 0 0 0 0 0 0 0 0 0 0 0 0 0 0 0 0 0 0 0 0 0 0 0 0
0 0 0 0 0 0 0 0 0 0 0 0 0 -0 0 0 0 0 0 0 0 0 0 0 0 0 0 0 0 0 0 0 0 0 0 0 0 0 0 0 0 0 0 0
0 0 0 0 0 0 0 0 0 0 0 0 0 -0 0 0 0 0 0 0 0 0 0 0 0 0 0 0 0 0 0 0 0 0 0 0 0 0 0 0 0 0 0 0
0 0 0 0 0 0 0 0 0 0 0 0 0 -0 0 0 0 0 0 0 0 0 0 0 0 0 0 0 0 0 0 0 0 0 0 0 0 0 0 0 0 0 0 0
0 0 0 0 0 0 0 0 0 0 0 0 0 0 0 0 0 0 0 0 0 0 0 0 0 0 0 0 0 0 0 0 0 0 0 0 0 0 0 0 0 0 0 0
0 0 0 0 0 0 0 0 0 0 0 0 0 0 -0 0 0 0 0 0 0 0 -0 -0 -0 0 0 0 0 0 0 0 0 0 0 0 0 0 0 0 0 0 0 0
0 0 0 0 0 0 0 0 0 0 0 0 0 0 0 0 0 0 0 0 0 0 0 -0 0 0 0 0 0 0 0 0 0 0 0 0 0 0 0 0 0 0 0 0
0 0 0 0 0 0 0 0 0 0 0 0 0 0 0 0 0 0 0 0 0 0 0 0 0 0 0 0 0 0 0 0 0 0 0 0 0 0 0 0 0 0 0 0
0 0 0 0 0 0 0 0 0 0 0 0 0 0 0 0 0 0 0 0 0 0 0 0 0 0 0 0 0 0 0 0 0 0 0 0 0 0 0 0 0 0 0 0
0 0 0 0 0 0 0 0 0 0 0 0 0 0 0 0 0 0 0 0 0 -0 0 -0 -0 -0 0 0 0 0 0 0 0 0 0 0 0 0 0 0 0 0 0 0
0 0 0 0 0 0 0 0 0 0 0 0 0 0 0 0 0 0 0 0 0 -0 -0 -0 0 0 0 0 0 0 0 0 0 0 0 0 0 0 0 0 0 0 0 0
0 0 0 0 0 0 0 0 0 0 0 0 0 0 0 0 0 0 0 0 -0 0 -0 -0 0 0 -0 -0 -0 0 0 0 0 0 0 0 0 0 0 0 0 0 0 0
0 0 0 0 0 0 0 0 0 0 0 0 0 0 0 0 0 0 0 -0 -0 -0 0 0 0 0 0 0 0 0 0 0 0 0 0 0 0 0 0 0 0 0 0 0
0 0 0 0 0 0 0 0 0 0 0 0 0 0 0 0 0 0 -0 0 0 0 0 0 0 0 0 0 -0 -0 -0 0 0 0 0 0 0 0 0 0 0 0 0 0
0 0 0 0 0 0 0 0 0 0 0 0 0 0 0 0 0 0 -0 -0 0 0 0 0 0 0 0 0 0 0 0 0 0 0 0 0 0 0 0 0 0 0 0 0
0 0 0 0 0 0 0 0 0 0 0 0 0 0 0 0 0 0 0 0 0 0 0 0 0 0 0 0 0 0 0 0 -0 0 0 0 0 0 0 0 0 0 0 0
0 0 0 0 0 0 0 0 0 -0 0 0 0 0 0 0 0 0 0 0 0 0 0 0 0 0 0 0 0 0 0 0 0 0 0 0 0 0 0 0 0 0 0 0
0 0 0 0 0 0 0 0 0 0 0 0 0 0 0 0 0 0 0 0 0 0 0 0 0 0 0 0 0 0 0 0 0 0 0 0 0 0 0 0 0 0 0 0
0 0 0 0 0 0 0 0 0 0 0 0 0 0 0 0 0 0 0 0 0 0 0 0 0 0 0 0 0 0 0 0 0 0 0 0 0 0 0 0 0 0 0 0
0 0 0 0 0 0 0 0 0 0 0 0 0 -0 -0 -0 -0 0 -0 -0 -0 -0 -0 0 0 0 0 0 0 0 0 0 0 0 0 0 0 0 0 0 0 0 0 0
0 0 0 0 0 0 0 0 0 0 0 0 -0 -0 -0 -0 -0 -0 -0 -0 -0 -0 -0 -0 -0 -0 -0 -0 -0 0 0 0 0 0 0 0 0 0 0 0 0 0 0 0
0 0 0 0 0 0 0 0 0 0 -0 -0 -0 -0 -0 -0 -0 -0 -0 -0 -0 -0 -0 -0 -0 -0 -0 -0 -0 -0 -0 -0 -0 0 0 0 0 0 0 0 0 0 0 0
0 0 0 0 0 0 0 0 0 0 -0 -0 0 -0 -0 -0 -0 -0 -0 -0 -0 -0 -0 -0 -0 -0 -0 -0 -0 -0 -0 -0 -0 -0 -0 -0 0 0 0 0 0 0 0 0
0 0 0 0 0 0 0 0 0 0 0 0 0 0 0 0 0 0 -0 0 0 -0 -0 -0 -0 -0 -0 0 -0 0 -0 -0 -0 -0 -0 -0 -0 0 0 0 0 0 0 0
0 0 0 0 0 0 0 0 0 0 0 0 0 0 0 0 0 0 0 0 0 0 0 -0 -0 -0 -0 -0 -0 -0 -0 -0 0 0 0 0 0 0 0 0 0 0 0 0
0 0 0 0 0 0 0 0 0 0 0 0 0 0 0 0 0 0 0 0 0 0 0 0 -0 -0 -0 -0 -0 -0 -0 -0 -0 0 0 0 0 0 0 0 0 0 0 0
Wind_Speed_500mb
11 9 19 43 33 27 8 13 18 16 20 5 23 32 31 54 58 63 70 83 94 104 116 107 102 92 80 82 76 80 86 85 88 88 87 90 92 87 86 84 81 78 74 72
1 22 39 13 8 14 16 27 33 36 33 9 33 47 30 24 46 72 83 77 88 96 100 101 92 78 75 71 68 71 82 91 91 90 86 91 91 90 86 85 84 82 80 76
35 19 26 18 15 10 23 21 37 35 12 11 20 42 28 22 34 68 89 82 88 94 100 103 93 79 71 70 65 64 69 81 88 89 89 90 89 88 89 90 88 90 85 80
18 16 24 13 13 28 43 24 27 20 5 19 5 39 9 21 36 32 59 72 79 86 76 84 87 75 62 55 54 62 68 76 80 86 89 91 93 93 93 88 89 90 87 82
18 5 7 14 32 17 24 12 13 6 7 10 7 7 4 10 18 25 23 50 53 60 68 69 75 66 45 41 47 55 62 69 73 81 84 87 91 90 83 86 88 90 88 84
21 4 12 16 9 19 6 7 7 7 5 14 20 15 49 10 14 8 12 45 55 56 69 81 70 68 47 46 45 51 60 62 65 73 82 87 85 85 85 89 89 90 88 88
6 10 6 13 10 4 8 9 7 7 3 20 13 11 53 16 15 17 26 41 43 60 64 79 79 72 50 55 51 52 54 59 62 69 76 81 81 81 84 84 82 82 87 91
8 31 18 13 18 16 15 18 12 14 16 32 13 18 36 15 22 28 24 20 40 69 84 68 42 45 44 44 51 50 54 53 58 64 72 76 78 83 85 86 83 78 78 84
9 19 3 11 9 18 11 12 17 6 1 6 24 35 30 17 13 5 13 24 38 59 78 61 36 34 38 37 41 44 48 45 61 63 69 77 84 86 84 83 84 81 77 78
4 15 6 4 3 8 12 3 2 2 9 22 16 31 33 32 34 11 16 24 49 53 64 52 37 25 21 19 21 32 41 45 56 64 71 79 83 81 83 86 86 82 81 83
8 7 18 3 13 33 3 9 10 1 10 33 38 26 48 56 14 14 24 58 62 44 56 68 27 19 17 19 24 26 35 44 53 64 75 84 86 88 91 91 91 87 84 85
14 11 14 38 11 10 10 16 10 11 20 19 30 32 25 48 20 17 44 71 75 71 71 68 52 29 24 37 54 64 57 61 68 76 80 89 93 100 101 99 97 96 91 89
3 5 19 11 15 6 11 21 27 34 30 41 39 37 22 37 41 52 40 51 63 61 46 50 54 58 65 62 70 73 82 86 80 88 98 98 100 103 105 106 106 106 102 97
20 16 31 26 22 32 35 38 40 26 24 41 39 43 33 44 49 53 47 57 59 54 57 57 54 55 59 60 63 67 74 93 105 98 101 100 96 98 108 109 110 111 113 110
4 28 30 41 31 32 40 49 57 60 52 45 44 49 45 45 29 43 49 59 62 65 66 71 68 66 69 67 66 65 73 80 88 92 95 102 97 101 108 107 105 107 106 111
3 16 26 43 44 33 36 25 30 26 31 41 48 59 40 47 63 64 49 58 63 61 58 58 69 78 81 80 79 80 79 83 89 96 98 98 107 112 107 111 105 104 106 107
13 12 10 40 33 28 30 36 34 41 27 17 17 14 25 37 38 50 39 59 54 53 54 59 63 69 80 86 87 92 91 88 81 84 92 81 86 108 110 103 104 102 106 100
28 26 17 33 34 44 23 4 11 9 16 22 17 17 24 32 48 51 31 62 59 57 50 62 53 75 81 80 85 91 90 88 91 71 67 72 80 88 98 95 99 100 98 92
30 25 12 5 11 23 30 13 12 10 8 17 8 8 18 32 46 22 49 55 56 47 55 61 71 72 83 84 83 86 93 85 85 87 73 69 63 69 84 87 88 88 90 90
9 8 5 5 7 9 4 13 18 14 12 9 8 5 14 29 23 28 58 54 52 64 66 73 70 75 83 80 82 82 80 88 75 78 89 83 66 60 64 68 74 81 85 86
6 7 6 8 8 14 6 16 10 7 14 38 5 9 14 9 21 63 70 63 63 70 76 74 78 82 82 86 83 87 83 84 88 77 75 84 82 67 55 53 60 70 79 80
7 5 6 3 1 18 12 21 3 12 39 38 17 31 33 41 51 55 59 64 71 72 75 79 81 87 91 92 89 87 89 86 85 83 81 68 76 75 63 52 50 59 69 75
5 13 10 16 12 17 62 55 63 39 40 36 32 42 38 44 54 54 64 69 73 75 78 83 91 101 102 102 99 103 97 90 81 83 79 73 59 65 70 62 55 57 67 73
13 36 9 3 23 33 44 53 64 66 47 42 46 48 40 41 51 57 64 76 79 81 87 89 94 102 112 109 115 108 105 99 88 90 91 77 68 66 66 67 65 58 64 69
17 9 14 20 32 44 62 57 56 46 44 52 54 52 56 46 61 58 68 77 81 87 93 94 104 111 120 118 117 117 111 103 102 94 90 90 77 66 69 78 76 75 73 69
25 34 23 29 55 39 41 62 50 40 44 50 50 61 62 58 68 73 86 88 84 90 97 97 103 113 127 124 122 119 113 106 99 93 88 82 81 75 69 68 79 80 82 80
Wind_Direction_500mb
196 145 200 223 206 235 174 219 237 252 254 263 258 263 261 271 277 276 271 272 273 277 288 289 286 283 277 265 258 256 249 244 239 235 232 229 230 229 228 228 230 230 230 230
78 219 222 230 196 207 232 255 265 271 265 240 268 268 273 261 258 260 271 271 271 276 286 289 290 286 279 272 267 258 249 244 241 236 233 232 231 229 231 229 227 228 229 230
227 229 219 209 223 231 229 235 254 260 302 244 283 275 244 256 258 258 264 267 274 278 285 289 288 287 284 276 269 259 250 244 239 235 229 229 229 230 229 227 226 227 228 229
244 244 216 187 213 207 264 221 257 259 334 272 5 298 168 250 264 261 264 270 276 283 287 292 292 293 290 286 271 253 249 246 238 233 228 229 232 230 231 232 230 228 227 228
250 190 182 201 232 166 252 207 211 205 202 329 196 273 183 153 263 265 272 272 277 282 285 287 294 302 296 274 256 249 248 245 238 232 230 231 230 233 237 235 232 229 229 229
253 298 174 217 221 190 128 91 78 68 115 272 190 187 290 163 218 255 273 286 285 297 302 298 295 302 293 263 238 239 240 240 237 230 228 231 232 232 232 232 231 230 230 230
298 222 229 174 234 143 142 81 311 316 112 236 150 176 255 280 239 232 277 304 327 342 331 319 294 288 288 259 237 237 239 237 233 229 231 232 233 236 237 236 235 232 231 231
247 287 186 170 191 187 191 169 177 215 261 275 105 247 269 242 270 276 285 309 343 349 342 335 319 297 276 254 247 242 240 237 231 230 233 235 234 235 235 236 236 236 236 237
215 271 258 201 163 154 173 184 226 259 149 292 268 271 290 253 272 333 329 326 338 354 346 332 329 307 282 259 250 251 253 251 240 233 236 239 237 236 236 236 237 238 239 240
308 293 210 35 303 260 190 150 98 282 215 244 225 258 268 278 283 272 312 302 323 343 335 343 354 345 316 302 280 268 261 258 260 253 248 244 243 241 240 239 238 237 239 240
181 179 262 60 211 248 224 251 230 266 195 257 259 245 263 277 240 267 318 314 307 306 320 331 350 6 343 335 318 310 308 287 268 262 258 252 247 241 239 239 240 240 241 242
204 209 242 265 238 234 191 242 233 240 247 240 259 255 256 267 270 288 290 293 297 295 306 308 298 306 311 316 307 300 287 280 279 269 263 261 250 245 242 241 241 241 242 243
129 264 275 278 292 324 215 241 238 245 262 258 262 265 272 295 292 284 284 286 288 299 320 326 317 312 321 317 312 310 308 299 282 283 268 261 255 251 249 245 244 244 243 243
333 255 257 272 282 297 286 284 282 250 257 259 257 271 277 279 283 293 334 8 32 33 17 7 355 348 345 338 329 316 302 305 301 289 270 266 261 260 258 251 248 247 246 245
229 261 274 281 293 290 283 286 284 272 262 251 261 276 278 278 351 3 19 34 20 11 5 1 355 353 352 345 334 318 308 302 302 303 284 265 257 260 259 254 253 251 249 248
282 281 284 273 284 279 287 279 269 279 291 281 287 286 32 19 11 4 21 17 11 0 351 347 345 353 352 348 348 343 336 321 308 298 290 290 271 261 261 256 252 251 249 244
258 262 255 272 278 296 283 264 278 277 350 326 312 38 8 6 2 346 7 0 357 346 344 341 342 339 337 338 341 338 338 342 332 298 288 291 285 272 263 256 254 249 246 244
254 259 262 274 293 274 275 234 97 105 101 74 68 43 10 347 333 327 321 347 345 337 337 339 330 326 326 326 327 325 331 336 341 344 313 302 290 282 268 261 253 247 244 244
221 245 266 225 219 279 290 356 19 13 76 56 25 339 333 333 325 324 347 339 326 328 328 324 327 325 319 328 326 319 319 328 334 342 348 331 312 292 274 261 253 248 243 239
151 209 224 326 259 248 100 330 273 242 237 246 208 320 331 336 337 318 333 327 320 320 327 329 330 326 320 326 324 321 315 315 326 335 330 337 333 316 290 271 259 250 243 237
19 2 184 256 255 285 236 292 324 76 279 322 193 256 301 297 298 300 314 319 314 320 323 324 324 323 323 323 321 317 316 313 315 315 318 321 325 326 307 288 266 252 243 238
152 148 231 52 160 271 9 353 62 237 301 287 277 296 296 297 300 302 305 304 313 319 323 326 323 320 323 319 317 317 312 311 310 313 307 302 308 314 316 294 273 258 245 237
267 206 215 192 215 305 310 297 293 298 287 259 277 292 289 288 295 297 300 304 308 311 315 318 319 319 319 318 317 311 310 312 310 307 306 297 285 287 296 295 285 265 248 240
243 239 216 40 261 267 271 281 286 290 277 270 291 292 287 289 291 290 297 302 305 306 309 311 310 310 311 314 312 309 308 308 305 297 292 294 290 279 271 273 271 263 255 250
230 134 228 258 268 271 274 273 281 286 277 286 292 290 292 293 297 296 296 297 298 301 303 303 303 304 306 308 307 305 304 301 300 299 293 289 283 282 276 266 257 257 256 252
228 241 248 255 265 266 275 281 291 286 287 286 289 295 299 299 300 303 300 301 298 297 298 296 297 300 303 302 301 299 299 300 298 295 289 281 283 276 274 268 262 258 254 251
Wind_Speed_850mb
11 9 19 43 33 27 8 13 18 16 20 5 23 32 31 54 58 63 70 83 94 104 116 107 102 92 80 82 76 80 86 85 88 88 87 90 92 87 86 84 81 78 74 72
1 22 39 13 8 14 16 27 33 36 33 9 33 47 30 24 46 72 83 77 88 96 100 101 92 78 75 71 68 71 82 91 91 90 86 91 91 90 86 85 84 82 80 76
35 19 26 18 15 10 23 21 37 35 12 11 20 42 28 22 34 68 89 82 88 94 100 103 93 79 71 70 65 64 69 81 88 89 89 90 89 88 89 90 88 90 85 80
18 16 24 13 13 28 43 24 27 20 5 19 5 39 9 21 36 32 59 72 79 86 76 84 87 75 62 55 54 62 68 76 80 86 89 91 93 93 93 88 89 90 87 82
18 5 7 14 32 17 24 12 13 6 7 10 7 7 4 10 18 25 23 50 53 60 68 69 75 66 45 41 47 55 62 69 73 81 84 87 91 90 83 86 88 90 88 84
21 4 12 16 9 19 6 7 7 7 5 14 20 15 49 10 14 8 12 45 55 56 69 81 70 68 47 46 45 51 60 62 65 73 82 87 85 85 85 89 89 90 88 88
6 10 6 13 10 4 8 9 7 7 3 20 13 11 53 16 15 17 26 41 43 60 64 79 79 72 50 55 51 52 54 59 62 69 76 81 81 81 84 84 82 82 87 91
8 31 18 13 18 16 15 18 12 14 16 32 13 18 36 15 22 28 24 20 40 69 84 68 42 45 44 44 51 50 54 53 58 64 72 76 78 83 85 86 83 78 78 84
9 19 3 11 9 18 11 12 17 6 1 6 24 35 30 17 13 5 13 24 38 59 78 61 36 34 38 37 41 44 48 45 61 63 69 77 84 86 84 83 84 81 77 78
4 15 6 4 3 8 12 3 2 2 9 22 16 31 33 32 34 11 16 24 49 53 64 52 37 25 21 19 21 32 41 45 56 64 71 79 83 81 83 86 86 82 81 83
8 7 18 3 13 33 3 9 10 1 10 33 38 26 48 56 14 14 24 58 62 44 56 68 27 19 17 19 24 26 35 44 53 64 75 84 86 88 91 91 91 87 84 85
14 11 14 38 11 10 10 16 10 11 20 19 30 32 25 48 20 17 44 71 75 71 71 68 52 29 24 37 54 64 57 61 68 76 80 89 93 100 101 99 97 96 91 89
3 5 19 11 15 6 11 21 27 34 30 41 39 37 22 37 41 52 40 51 63 61 46 50 54 58 65 62 70 73 82 86 80 88 98 98 100 103 105 106 106 106 102 97
20 16 31 26 22 32 35 38 40 26 24 41 39 43 33 44 49 53 47 57 59 54 57 57 54 55 59 60 63 67 74 93 105 98 101 100 96 98 108 109 110 111 113 110
4 28 30 41 31 32 40 49 57 60 52 45 44 49 45 45 29 43 49 59 62 65 66 71 68 66 69 67 66 65 73 80 88 92 95 102 97 101 108 107 105 107 106 111
3 16 26 43 44 33 36 25 30 26 31 41 48 59 40 47 63 64 49 58 63 61 58 58 69 78 81 80 79 80 79 83 89 96 98 98 107 112 107 111 105 104 106 107
13 12 10 40 33 28 30 36 34 41 27 17 17 14 25 37 38 50 39 59 54 53 54 59 63 69 80 86 87 92 91 88 81 84 92 81 86 108 110 103 104 102 106 100
28 26 17 33 34 44 23 4 11 9 16 22 17 17 24 32 48 51 31 62 59 57 50 62 53 75 81 80 85 91 90 88 91 71 67 72 80 88 98 95 99 100 98 92
30 25 12 5 11 23 30 13 12 10 8 17 8 8 18 32 46 22 49 55 56 47 55 61 71 72 83 84 83 86 93 85 85 87 73 69 63 69 84 87 88 88 90 90
9 8 5 5 7 9 4 13 18 14 12 9 8 5 14 29 23 28 58 54 52 64 66 73 70 75 83 80 82 82 80 88 75 78 89 83 66 60 64 68 74 81 85 86
6 7 6 8 8 14 6 16 10 7 14 38 5 9 14 9 21 63 70 63 63 70 76 74 78 82 82 86 83 87 83 84 88 77 75 84 82 67 55 53 60 70 79 80
7 5 6 3 1 18 12 21 3 12 39 38 17 31 33 41 51 55 59 64 71 72 75 79 81 87 91 92 89 87 89 86 85 83 81 68 76 75 63 52 50 59 69 75
5 13 10 16 12 17 62 55 63 39 40 36 32 42 38 44 54 54 64 69 73 75 78 83 91 101 102 102 99 103 97 90 81 83 79 73 59 65 70 62 55 57 67 73
13 36 9 3 23 33 44 53 64 66 47 42 46 48 40 41 51 57 64 76 79 81 87 89 94 102 112 109 115 108 105 99 88 90 91 77 68 66 66 67 65 58 64 69
17 9 14 20 32 44 62 57 56 46 44 52 54 52 56 46 61 58 68 77 81 87 93 94 104 111 120 118 117 117 111 103 102 94 90 90 77 66 69 78 76 75 73 69
25 34 23 29 55 39 41 62 50 40 44 50 50 61 62 58 68 73 86 88 84 90 97 97 103 113 127 124 122 119 113 106 99 93 88 82 81 75 69 68 79 80 82 80
Wind_Direction_850mb
196 145 200 223 206 235 174 219 237 252 254 263 258 263 261 271 277 276 271 272 273 277 288 289 286 283 277 265 258 256 249 244 239 235 232 229 230 229 228 228 230 230 230 230
78 219 222 230 196 207 232 255 265 271 265 240 268 268 273 261 258 260 271 271 271 276 286 289 290 286 279 272 267 258 249 244 241 236 233 232 231 229 231 229 227 228 229 230
227 229 219 209 223 231 229 235 254 260 302 244 283 275 244 256 258 258 264 267 274 278 285 289 288 287 284 276 269 259 250 244 239 235 229 229 229 230 229 227 226 227 228 229
244 244 216 187 213 207 264 221 257 259 334 272 5 298 168 250 264 261 264 270 276 283 287 292 292 293 290 286 271 253 249 246 238 233 228 229 232 230 231 232 230 228 227 228
250 190 182 201 232 166 252 207 211 205 202 329 196 273 183 153 263 265 272 272 277 282 285 287 294 302 296 274 256 249 248 245 238 232 230 231 230 233 237 235 232 229 229 229
253 298 174 217 221 190 128 91 78 68 115 272 190 187 290 163 218 255 273 286 285 297 302 298 295 302 293 263 238 239 240 240 237 230 228 231 232 232 232 232 231 230 230 230
298 222 229 174 234 143 142 81 311 316 112 236 150 176 255 280 239 232 277 304 327 342 331 319 294 288 288 259 237 237 239 237 233 229 231 232 233 236 237 236 235 232 231 231
247 287 186 170 191 187 191 169 177 215 261 275 105 247 269 242 270 276 285 309 343 349 342 335 319 297 276 254 247 242 240 237 231 230 233 235 234 235 235 236 236 236 236 237
215 271 258 201 163 154 173 184 226 259 149 292 268 271 290 253 272 333 329 326 338 354 346 332 329 307 282 259 250 251 253 251 240 233 236 239 237 236 236 236 237 238 239 240
308 293 210 35 303 260 190 150 98 282 215 244 225 258 268 278 283 272 312 302 323 343 335 343 354 345 316 302 280 268 261 258 260 253 248 244 243 241 240 239 238 237 239 240
181 179 262 60 211 248 224 251 230 266 195 257 259 245 263 277 240 267 318 314 307 306 320 331 350 6 343 335 318 310 308 287 268 262 258 252 247 241 239 239 240 240 241 242
204 209 242 265 238 234 191 242 233 240 247 240 259 255 256 267 270 288 290 293 297 295 306 308 298 306 311 316 307 300 287 280 279 269 263 261 250 245 242 241 241 241 242 243
129 264 275 278 292 324 215 241 238 245 262 258 262 265 272 295 292 284 284 286 288 299 320 326 317 312 321 317 312 310 308 299 282 283 268 261 255 251 249 245 244 244 243 243
333 255 257 272 282 297 286 284 282 250 257 259 257 271 277 279 283 293 334 8 32 33 17 7 355 348 345 338 329 316 302 305 301 289 270 266 261 260 258 251 248 247 246 245
229 261 274 281 293 290 283 286 284 272 262 251 261 276 278 278 351 3 19 34 20 11 5 1 355 353 352 345 334 318 308 302 302 303 284 265 257 260 259 254 253 251 249 248
282 281 284 273 284 279 287 279 269 279 291 281 287 286 32 19 11 4 21 17 11 0 351 347 345 353 352 348 348 343 336 321 308 298 290 290 271 261 261 256 252 251 249 244
258 262 255 272 278 296 283 264 278 277 350 326 312 38 8 6 2 346 7 0 357 346 344 341 342 339 337 338 341 338 338 342 332 298 288 291 285 272 263 256 254 249 246 244
254 259 262 274 293 274 275 234 97 105 101 74 68 43 10 347 333 327 321 347 345 337 337 339 330 326 326 326 327 325 331 336 341 344 313 302 290 282 268 261 253 247 244 244
221 245 266 225 219 279 290 356 19 13 76 56 25 339 333 333 325 324 347 339 326 328 328 324 327 325 319 328 326 319 319 328 334 342 348 331 312 292 274 261 253 248 243 239
151 209 224 326 259 248 100 330 273 242 237 246 208 320 331 336 337 318 333 327 320 320 327 329 330 326 320 326 324 321 315 315 326 335 330 337 333 316 290 271 259 250 243 237
19 2 184 256 255 285 236 292 324 76 279 322 193 256 301 297 298 300 314 319 314 320 323 324 324 323 323 323 321 317 316 313 315 315 318 321 325 326 307 288 266 252 243 238
152 148 231 52 160 271 9 353 62 237 301 287 277 296 296 297 300 302 305 304 313 319 323 326 323 320 323 319 317 317 312 311 310 313 307 302 308 314 316 294 273 258 245 237
267 206 215 192 215 305 310 297 293 298 287 259 277 292 289 288 295 297 300 304 308 311 315 318 319 319 319 318 317 311 310 312 310 307 306 297 285 287 296 295 285 265 248 240
243 239 216 40 261 267 271 281 286 290 277 270 291 292 287 289 291 290 297 302 305 306 309 311 310 310 311 314 312 309 308 308 305 297 292 294 290 279 271 273 271 263 255 250
230 134 228 258 268 271 274 273 281 286 277 286 292 290 292 293 297 296 296 297 298 301 303 303 303 304 306 308 307 305 304 301 300 299 293 289 283 282 276 266 257 257 256 252
228 241 248 255 265 266 275 281 291 286 287 286 289 295 299 299 300 303 300 301 298 297 298 296 297 300 303 302 301 299 299 300 298 295 289 281 283 276 274 268 262 258 254 251